Other Surface Observations
Issued by NWS Upton, NY

Home | Current Version | Previous Version | Text Only | Print | Product List | Glossary On
Versions: 1 2 3 4 5 6 7 8 9 10 11 12 13 14 15 16 17 18 19 20 21 22 23 24 25 26 27 28 29 30 31 32 33 34 35 36 37 38 39 40 41 42 43 44 45 46 47 48 49 50
000
SXUS51 KOKX 251557
OSOOKX
New York City Metropolitan Area Weather Roundup
National Weather Service New York NY
1200 PM EDT WED APR 25 2018

CITY           SKY/WX    TMP DP  RH WIND       PRES   REMARKS
Central Park   CLOUDY    59  57  93 SE7       29.85F
LaGuardia Arpt CLOUDY    60  56  86 SE17G26   29.81F
Kennedy Intl   LGT RAIN  57  57 100 E18       29.83F VSB 3/4
Newark Liberty CLOUDY    57  57 100 SE14G24   29.82F
Teterboro Arpt CLOUDY    60  57  89 SE14G24   29.81F FOG
Bronx Bot Gard   N/A     57  55  94 NE7       29.85F
Bronx Lehman C   N/A     57  55  94 E9          N/A
Queens College   N/A     57  55  94 SE13        N/A
Breezy Point     N/A     50 N/A N/A E14G21      N/A
Brooklyn Coll    N/A     55  54  94 E14G28      N/A
Staten Island    N/A     54  54 100 SE14G25     N/A

>>>>>>>>>>>>>>>>>>>>>>>>>>>>>>>>> KEY <<<<<<<<<<<<<<<<<<<<<<<<<<<<<<<
> SKY/WX - Sky Condition/Present    : R : WCI - Wind Chill Index    <
>          Weather                  : E : VSB - Visibility in Miles <
> TMP    - Temperature in Deg F     : M : HX  - Heat Index          <
> DP     - Dew Point Temperature    : A : TC  - Temperature in      <
> RH     - Relative Humidity        : R :       Celsius             <
> WIND   - Direction/Speed (mph)    : K : VRB - Variable Wind Dir   <
> PRES   - Pressure (in Hg)         : S :                           <
>>>>>>>>>>>>>>>>>>>>>>>>>>>>>>>>> KEY <<<<<<<<<<<<<<<<<<<<<<<<<<<<<<<




USA.gov is the U.S. government's official web portal to all federal, state and local government web resources and services.